Orbital Elements at Epoch 2459000.5 (2020-May-31.0) TDB
Reference: JPL 22 (heliocentric ecliptic J2000)
Element | Value | Uncertainty (1-sigma) | Units |
e | .1458915564868849 | 4.0813e-08 | |
a | 2.464573036938801 | 8.6211e-09 | au |
q | 2.10501264050419 | 1.0288e-07 | au |
i | 3.798507166250941 | 4.1448e-06 | deg |
node | 103.7365728010809 | 5.3767e-05 | deg |
peri | 43.76263167980591 | 5.5579e-05 | deg |
M | 12.89195866922526 | 1.2716e-05 | deg |
tp | 2458949.891044990758 (2020-Apr-10.39104499) | 4.993e-05 | TDB |
period | 1413.223876277132 3.87 | 7.4152e-06 2.03e-08 | d yr |
n | .2547367094790042 | 1.3366e-09 | deg/d |
Q | 2.824133433373411 | 9.8788e-09 | au |
|
| | Orbit Determination Parameters
Additional Information
|